This demonstration page uses our WeatherBlox Daily Observations layout. Learn more.

Left ArrowRight Arrow

Hourly Observations for November 28, 2022

Temp ( °F °C ) Dew Point ( °F °C ) Humidity (%) Winds ( mph kmh ) Pressure ( in mb ) Visibility ( mi km ) Precip ( " mm )
12:56 am 00:56 Clear 30 -1.1 19 -7.2 63 63 SSW 13 20 29.79 1009 10 16 0.00 0.00
1:56 am 01:56 Clear 28 -2.2 19 -7.2 68 68 S 12 19 29.78 1008 10 16 0.00 0.00
2:56 am 02:56 Clear 28 -2.2 19 -7.2 68 68 SSW 8 13 29.77 1008 10 16 0.00 0.00
3:56 am 03:56 Clear 27 -2.8 20 -6.7 74 74 SSW 8 13 29.76 1008 10 16 0.00 0.00
4:56 am 04:56 Clear 26 -3.3 21 -6.1 81 81 S 9 15 29.74 1007 10 16 0.00 0.00
5:56 am 05:56 Clear 28 -2.2 23 -5 81 81 SW 12 19 29.75 1007 10 16 0.00 0.00
6:56 am 06:56 Clear 30 -1.1 25 -3.9 81 81 SSW 20 31 29.74 1007 10 16 0.00 0.00
7:56 am 07:56 Sunny 29 -1.7 25 -3.9 85 85 SSW 16 26 29.74 1007 10 16 0.00 0.00
8:56 am 08:56 Sunny 32 0 25 -3.9 75 75 SSW 10 17 29.74 1007 10 16 0.00 0.00
9:56 am 09:56 Sunny 37 2.8 27 -2.8 67 67 SSW 14 22 29.74 1007 10 16 0.00 0.00
10:56 am 10:56 Sunny 43 6.1 28 -2.2 55 55 SSW 13 20 29.72 1006 10 16 0.00 0.00
11:56 am 11:56 Sunny 48 8.9 28 -2.2 46 46 SSW 8 13 29.69 1005 10 16 0.00 0.00
12:56 pm 12:56 Sunny 51 10.6 29 -1.7 42 42 SSE 8 13 29.65 1004 10 16 0.00 0.00
1:56 pm 13:56 Sunny 54 12.2 29 -1.7 38 38 SSE 9 15 29.61 1003 10 16 0.00 0.00
2:56 pm 14:56 Sunny 54 12.2 30 -1.1 40 40 S 13 20 29.59 1002 10 16 0.00 0.00
3:56 pm 15:56 Sunny 50 10 29 -1.7 44 44 SSE 13 20 29.60 1002 10 16 0.00 0.00
4:56 pm 16:56 Sunny 44 6.7 29 -1.7 55 55 SE 9 15 29.62 1003 10 16 0.00 0.00
5:56 pm 17:56 Clear 39 3.9 27 -2.8 62 62 E 6 9 29.62 1003 10 16 0.00 0.00
6:56 pm 18:56 Clear 33 0.6 24 -4.4 69 69 ENE 8 13 29.64 1004 9 14 0.00 0.00
7:56 pm 19:56 Clear 34 1.1 26 -3.3 72 72 NE 9 15 29.64 1004 10 16 0.00 0.00
8:56 pm 20:56 Cloudy 39 3.9 29 -1.7 67 67 NNE 10 17 29.62 1003 10 16 0.00 0.00
9:56 pm 21:56 Cloudy 40 4.4 27 -2.8 59 59 NNE 17 28 29.61 1003 10 16 0.00 0.00
10:30 pm 22:30 Cloudy 39 4 25 -4 56 56 NNE 22 35 29.62 1003 10 16 0.00 0.00
10:56 pm 22:56 Cloudy 39 3.9 23 -5 52 52 NNE 22 35 29.60 1002 10 16 0.00 0.00
11:56 pm 23:56 Cloudy 37 2.8 22 -5.6 54 54 NNE 29 46 29.59 1002 10 16 0.00 0.00

Powered by AerisWeather